www.pogodaiklimat.ru

Погода и климат >> Архив погоды >> Россия >> Ханты-Мансийский АО >> Вонъеган


ПОГОДА в Вонъегане

  • Прогноз погоды в Вонъегане
  • Монитор погоды в Вонъегане

АРХИВ ПОГОДЫ в Вонъегане

Время (UTC), дата Ветер
(напр.,м/с)
 
Видим.   Явления Облачность Т
(С)
Тd
(С)
f
(%)
Тe
(С)
Тes
(С)
Комфортность P
(гПа)
Po
(гПа)
Тmin
(С)
Tmax
(С)
R
(мм)
R24
(мм)
S
(см)
00 17.01 Ю 2 10 км слаб. снег 10/0
[As op]
-9.2 -10.1 93 -14 -14 1010.5 996.2
03 17.01 ЮВ 3 20 км позёмок {снег} 10/4 600 м
[Sc As op]
-6.5 -8.0 89 -12 -12 1007.2 993.0 -17.4 0.3 46
06 17.01 Ю 6-12
{12}
н/о н/о -4.3 -6.4 85 -12 -12 1004.2 990.1
09 17.01 Ю 5
{12}
20 км позёмок 10/3 600 м
[Sc Ac As]
-3.7 -7.0 78 -10 -10 1002.3 988.3
12 17.01 Ю 4
{10}
н/о н/о -5.3 -8.7 77 -12 -12 1002.1 988.0
15 17.01 Ю 4 10 км слаб. снег {метель} 10/0
[As op]
-6.3 -7.8 89 -13 -13 1000.8 986.7 -3.5 0.8
18 17.01 Ю 4 4000 м слаб. снег {метель} 10/0
[As op]
-6.7 -7.8 92 -13 -13 999.5 985.4
21 17.01 Ю 3 10 км слаб. снег {метель} 10/0
[As op]
-6.5 -7.7 91 -12 -12 999.4 985.3
00 18.01 Ю 3 20 км позёмок {снег} 9/9 600 м
[Sc]
-6.5 -7.8 90 -12 -12 1000.5 986.4
03 18.01 Ю 3 20 км позёмок 1/0
[Ci sp]
-8.9 -10.2 90 -15 -15 1001.2 987.0 -8.9 3 47
06 18.01 Ю 3 н/о н/о -9.7 -11.1 89 -16 -16 1001.5 987.3 -10.0
09 18.01 Ю 3 10 км слаб. снег {метель} 10/10 600 м
[Sc]
-8.9 -10.5 88 -15 -15 1000.5 986.3
12 18.01 Ю 4 н/о н/о -8.3 -9.8 89 -15 -15 998.9 984.8
15 18.01 Ю 4 10 км слаб. снег {метель} 10/4 600 м
[Sc As trans]
-7.9 -9.2 90 -15 -15 996.9 982.8 -7.9 1
18 18.01 Ю 3 10 км слаб. снег {метель} 10/0
[As op]
-7.5 -8.6 92 -13 -13 995.6 981.5
21 18.01 ЮЗ 4 10 км слаб. снег {метель} 10/0
[As trans Cs]
-7.1 -8.6 89 -14 -14 996.4 982.3
00 19.01 ЮЗ 4 20 км позёмок {снег} 10/5 600 м
[Sc As op]
-7.0 -8.7 88 -14 -14 997.7 983.6
03 19.01 ЮЗ 3 20 км позёмок 9/9 600 м
[Sc]
-6.2 -8.2 86 -12 -12 999.4 985.3 -7.9 1 50
06 19.01 ЮЗ 5 н/о н/о -6.4 -8.2 87 -14 -14 1000.7 986.6
09 19.01 ЮЗ 3 20 км позёмок 10/8 600 м
[Sc Ci sp]
-6.1 -8.1 86 -12 -12 1002.6 988.5
12 19.01 Ю 1 н/о н/о -6.3 -7.5 91 -9 -9 1002.3 988.1
15 19.01 Ю 2 4000 м слаб. снег 10/0
[As op]
-6.5 -7.2 95 -11 -11 1001.6 987.5 -5.8 3
18 19.01 штиль 0 10 км слаб. снег 10/4 600 м
[Sc As trans]
-8.2 -8.8 95 -9 -9 1001.5 987.3
21 19.01 З 1 20 км в посл. час снег 9/9 600 м
[Sc]
-8.9 -9.6 95 -11 -11 1004.0 989.7
00 20.01 штиль 0 20 км {снег} 10/10 600 м
[Sc]
-8.4 -9.2 94 -9 -9 1006.1 991.8
03 20.01 С 1 20 км 10/10 600 м
[Sc]
-8.7 -9.4 95 -11 -11 1007.5 993.2 -10.3 2 51
06 20.01 СВ 1 н/о н/о -9.5 -10.4 93 -12 -12 1008.6 994.2
09 20.01 В 1 20 км 9/6 600 м
[Sc Ac trans]
-9.7 -10.8 92 -12 -12 1008.7 994.3
12 20.01 СВ 1 н/о н/о -10.5 -11.5 92 -13 -13 1008.5 994.1
15 20.01 СВ 1 10 км слаб. снег 10/0
[As trans]
-11.5 -12.5 92 -14 -14 1007.4 992.9 -8.7 0.3
18 20.01 СВ 1 10 км слаб. снег 10/0
[As trans]
-11.9 -13.0 92 -14 -14 1006.5 992.0
21 20.01 С 1 10 км слаб. снег 10/0
[As op]
-11.7 -12.9 91 -14 -14 1005.4 990.9
00 21.01 СЗ 1 10 км слаб. снег 10/0
[As op]
-12.0 -13.2 91 -14 -14 1005.0 990.5
03 21.01 З 2 10 км слаб. снег 10/0
[As op]
-14.5 -16.0 88 -19 -19 1005.5 990.9 -14.6 3 54
06 21.01 З 2 н/о н/о -16.5 -18.1 87 -22 -22 1006.1 991.3 -16.5
09 21.01 З 2 20 км 3/0
[Ci fib]
-14.2 -16.3 84 -19 -19 1006.7 992.1
12 21.01 Ю 1 н/о н/о -20.3 -22.1 85 -23 -23 1007.4 992.4
15 21.01 Ю 3 20 км 10/8 600 м
[Sc Ci sp]
-16.0 -17.6 87 -23 -23 1006.1 991.4 -14.2 0.4
18 21.01 Ю 3 20 км {снег} 5/0
[Ci sp]
-17.2 -18.8 87 -24 -24 1006.1 991.3
21 21.01 Ю 2 20 км 9/0
[Ci sp]
-18.5 -20.2 86 -24 -24 1006.2 991.3
00 22.01 Ю 1 20 км 3/0
[Ci sp]
-22.2 -24.4 82 -25 -25 1005.7 990.6
03 22.01 Ю 2 20 км 5/0
[Ac trans Ci sp]
-19.1 -20.9 86 -25 -25 1005.4 990.5 -22.6 0.2 54
06 22.01 Ю 2 н/о н/о -18.6 -20.4 86 -24 -24 1005.5 990.6
09 22.01 Ю 2 20 км 4/0
[Ci sp]
-15.9 -17.6 87 -21 -21 1005.6 990.9
12 22.01 Ю 2 н/о н/о -17.2 -18.7 88 -23 -23 1005.9 991.1
15 22.01 Ю 2 20 км 3/0
[Ci sp]
-19.4 -21.1 86 -25 -25 1006.0 991.1 -15.6
18 22.01 штиль 0 20 км 4/0
[Ci sp]
-23.3 -25.7 81 -23 -23 1006.4 991.2
21 22.01 штиль 0 20 км 3/0
[Ci sp]
-26.5 -29.2 78 -27 -27 1007.6 992.2
00 23.01 штиль 0 20 км 3/0
[Ci sp]
-28.2 -31.0 77 -28 -28 1008.8 993.3
03 23.01 штиль 0 20 км 3/0
[Ci sp]
-28.9 -31.8 76 -29 -29 1010.0 994.4 -29.5 54
06 23.01 Ю 1 н/о н/о -27.8 -30.4 78 -32 -32 опасность
обморожения
1011.3 995.8 -31.0
09 23.01 Ю 1 20 км 1/0
[Ci sp]
-20.8 -22.9 83 -24 -24 1012.3 997.2
12 23.01 Ю 1 н/о н/о -24.4 -26.7 81 -28 -28 1013.6 998.3
15 23.01 Ю 1 20 км ясно -24.7 -26.9 82 -28 -28 1014.9 999.6 -20.5
18 23.01 Ю 1 20 км 3/0
[Ci sp]
-27.2 -29.9 78 -31 -31 опасность
обморожения
1016.2 1000.7

 

Местоположение метеостанции Вонъеган (Ханты-Мансийский АО, Россия): широта 61.95 долгота 64.90 высота над уровнем моря 111 м.

В архиве по умолчанию представлена погода в Вонъегане за последнюю неделю. Архивные данные за месяц целиком и за предыдущие месяцы, начиная с января 2011 года, Вы можете получить, выбрав интересующий диапазон дат из раскрывающегося списка и нажав кнопку "Ввод!".


*Определитесь, кто Вы:
робот инопланетянин человек

Внимание! Время в таблицах - всемирное. Для получения местного времени необходимо прибавить поправку, которая равна 5 ч.

Смотрите также архив погоды в соседних городах и на ближайших метеорологических станциях:

Погода в Октябрьском (Ханты-Мансийский АО, Россия) (82 км)
Погода в Агирише (Ханты-Мансийский АО, Россия) (98 км)
Погода в Югорске (Ханты-Мансийский АО, Россия) (108 км)
Погода в Игриме (Ханты-Мансийский АО, Россия) (141 км)
Погода в Атымье (Свердловская область, Россия) (175 км)
Погода в Шаиме (Ханты-Мансийский АО, Россия) (185 км)
Погода в Няксимволе (Ханты-Мансийский АО, Россия) (216 км)
Погода в Березово (Ханты-Мансийский АО, Россия) (219 км)
Погода в Казым-Мысе (Ханты-Мансийский АО, Россия) (230 км)
Погода в Казыме (Ханты-Мансийский АО, Россия) (230 км)

Пояснения к столбцам:

Ветер - указаны скорость ветра в м/с - средняя за 10 мин, порывы в срок и между сроками (в фигурных скобках) и направление, откуда дует ветер: С - северный, СВ - северо-восточный, В - восточный, ЮВ - юго-восточный, Ю - южный, ЮЗ - юго-западный, З - западный, СЗ - северо-западный.
Видимость - горизонтальная дальность видимости в метрах или километрах. При видимости от 1 до 10 км при отсутствии осадков обычно наблюдается дымка, при ухудшении видимости до 1 км и менее - туман. В сухую погоду видимость может ухудшаться дымом, пылью или мглою.
Явления - указаны атмосферные явления, наблюдавшиеся в срок или в последний час перед сроком; фигурными скобками обозначены явления, наблюдавшиеся между сроками (за 1-3 часа до срока); квадратными скобками обозначены град или гололедные отложения с указанием их диаметра в мм.
Облачность - указаны через наклонную черту общая и нижняя облачность в баллах и высота нижней границы облаков в метрах; квадратными скобками обозначены формы облаков: Ci - перистые, Cs - перисто-слоистые, Cc - перисто-кучевые, Ac - высококучевые, As - высокослоистые, Sc - слоисто-кучевые, Ns - слоисто-дождевые, Cu - кучевые, Cb - кучево-дождевые. Подробнее классификацию облаков см. в Атласе облаков (PDF).
T - Температура воздуха - температура, измеренная на высоте 2 м над землей.
Td - Температура точки росы - температура, при понижении до которой содержащийся в воздухе водяной пар достигнет насыщения.
f - Относительная влажность воздуха - влажноcть воздуха, измеренная на высоте 2 м над землей.
Te - Эффективная температура - температура, которую ощущает одетый по сезону человек в тени. Характеристика душности погоды. При расчете учитывается влияние влажности воздуха и скорости ветра на теплоощущения человека.
Tes - Эффективная температура на солнце - температура, которую ощущает человек, с поправкой на солнечный нагрев. Характеристика знойности погоды. Зависит от высоты солнца над горизонтом, облачности и скорости ветра. Ночью, в пасмурную погоду, а также при ветре 12 м/с и более поправка равна нулю.
P - Атмосферное давление - приведенное к уровню моря атмосферное давление.
Po - Атмосферное давление - измеренное на уровне метеостанции атмосферное давление.
Tmin - Минимальная температура - минимум температуры воздуха на высоте 2 м над землей.
Tmax - Максимальная температура - максимум температуры воздуха на высоте 2 м над землей.
R - Количество осадков - Количество выпавших осадков за период времени, мм. При наведении курсора мыши на число - период времени, за который выпало указанное количество осадков.
R24 - Количество осадков - Количество выпавших осадков за 24 часа, мм.
S - Снежный покров - Высота снежного покрова, см. При наведении курсора мыши на число - состояние снежного покрова и степень покрытия местности в баллах.